Smith Valley, Nevada Weather observations

Data are for 10 minute period ending at time listed.
 Day   Time   Solar   Ave.   Ave.  Ave.  Vector  Max.   Baro.   Total    
  of    of     Rad.   Air    Rel.  Wind   Wind   Wind  Press.  Precip.   
Year   Day            Temp.  Hum.  Speed  Dir.   Gust                    
2026   (PST)  Kw/m2    F      %     mph   deg.    mph    mb.     in.     
-------------------------------------------------------------------------
 125    0:30   0.00   45.9    92    1.0   236     2.5   848.4    0.00 
 125    0:40   0.00   46.0    92    0.8   211     1.8   848.4    0.00 
 125    0:50   0.00   46.1    90    0.8     0     2.3   848.4    0.00 
 125    1:00   0.00   46.2    88    1.3   264     2.8   848.3    0.00 
 125    1:10   0.00   46.1    89    2.3   264     2.9   848.2    0.00 
 125    1:20   0.00   45.9    91    2.2   229     3.5   848.1    0.00 
 125    1:30   0.00   45.9    91    2.6   274     5.8   848.1    0.00 
 125    1:40   0.00   45.7    92    4.4   301     6.7   848.0    0.00 
 125    1:50   0.00   45.6    94    3.1   283     4.7   848.0    0.00 
 125    2:00   0.00   45.7    94    2.6   236     3.5   847.8    0.00 
 125    2:10   0.00   45.8    94    2.4   215     3.4   847.7    0.00 
 125    2:20   0.00   45.9    94    1.9   176     2.7   847.8    0.00 
 125    2:30   0.00   45.9    92    2.5   138     4.0   847.8    0.00 
 125    2:40   0.00   46.1    91    1.0   102     2.2   847.8    0.00 
 125    2:50   0.00   45.9    92    1.0   132     2.1   847.7    0.00 
 125    3:00   0.00   45.8    94    1.5   305     2.1   847.9    0.00 
 125    3:10   0.00   45.7    95    1.2   297     1.8   847.9    0.01 
 125    3:20   0.00   45.6    95    0.8   293     2.8   848.0    0.01 
 125    3:30   0.00   45.6    93    2.0   314     3.9   848.1    0.02 
 125    3:40   0.00   45.3    94    2.8   298     3.9   848.1    0.01 
 125    3:50   0.00   45.0    96    3.0   265     4.3   848.0    0.01 
 125    4:00   0.00   44.8    95    3.3   248     4.4   848.0    0.00 
 125    4:10   0.00   45.0    96    2.9   238     4.4   847.9    0.00 
 125    4:20   0.00   45.0    96    2.5   227     3.2   847.8    0.01 
 125    4:30   0.00   45.0    96    1.4   219     2.3   847.9    0.01 
 125    4:40   0.00   45.1    97    1.9   198     4.3   847.9    0.01 
 125    4:50   0.00   45.1    97    3.7   165     5.0   848.0    0.01 
 125    5:00   0.00   45.1    97    3.7   115     5.2   848.4    0.01 
 125    5:10   0.00   45.0    97    5.2   104     8.2   848.6    0.03 
 125    5:20   0.00   44.7    96    4.6   118     6.9   848.8    0.01 
 125    5:30   0.00   44.5    94    3.1   229     5.2   848.8    0.04 
 125    5:40   0.00   44.1    95    4.7   267     6.1   848.7    0.01 
 125    5:50   0.01   44.2    97    5.5   284     8.2   848.7    0.02 
 125    6:00   0.01   44.4    96    3.8   283     7.7   848.8    0.01 
 125    6:10   0.01   44.4    93    0.8   343     2.4   849.2    0.01 
 125    6:20   0.02   44.5    93    0.9    64     1.9   849.4    0.01 
 125    6:30   0.03   44.6    93    0.5   232     1.8   849.5    0.01 
 125    6:40   0.04   44.4    91    2.7   288     4.1   849.6    0.00 
 125    6:50   0.06   44.5    90    4.7   279     6.5   849.6    0.01 
 125    7:00   0.07   44.8    92    4.1   244     6.6   849.6    0.00 
 125    7:10   0.14   45.1    91    4.9   224     7.9   849.6    0.00 
 125    7:20   0.14   45.4    89    3.8   215     5.9   849.6    0.00 
 125    7:30   0.08   45.4    88    2.7   180     4.5   849.7    0.00 
 125    7:40   0.11   45.5    88    2.8   168     4.4   849.8    0.00 
 125    7:50   0.12   45.8    87    3.2   148     5.7   849.9    0.00 
 125    8:00   0.11   45.9    86    4.2   138     7.0   849.9    0.00 
 125    8:10   0.08   46.0    87    4.1   114     5.9   850.1    0.00 
 125    8:20   0.18   46.2    86    4.1   134     6.2   850.2    0.00 
 125    8:30   0.30   46.7    84    4.6   176     8.2   850.1    0.00 
 125    8:40   0.27   47.2    83    4.4   197     6.0   850.1    0.00 
 125    8:50   0.30   47.9    78    2.0   211     4.8   850.0    0.00 
 125    9:00   0.24   48.4    76    1.7   155     3.4   850.1    0.00 
 125    9:10   0.15   47.9    76    1.6   117     3.4   850.3    0.00 
 125    9:20   0.29   48.2    76    2.3   171     4.1   850.2    0.00 
 125    9:30   0.23   48.7    76    2.6   156     4.6   850.3    0.00 
 125    9:40   0.19   48.9    79    1.9   149     4.3   850.5    0.00 
 125    9:50   0.19   48.8    78    3.1   132     6.1   850.7    0.00 
 125   10:00   0.23   48.8    76    1.6   192     3.7   850.8    0.00 
 125   10:10   0.29   49.4    74    2.1   251     4.3   850.8    0.00 
 125   10:20   0.20   49.6    72    1.4   330     2.9   851.0    0.00 
 125   10:30   0.24   49.5    71    0.8   156     2.7   851.1    0.00 
 125   10:40   0.41   50.2    70    0.8   199     2.6   851.1    0.00 
 125   10:50   0.52   51.0    71    1.1    26     2.6   851.1    0.00 
 125   11:00   0.56   51.5    68    1.5   154     4.3   851.2    0.00 
 125   11:10   0.57   51.6    69    2.4   197     4.6   851.1    0.00 
 125   11:20   1.08   52.4    68    2.2   187     5.0   851.0    0.00 
 125   11:30   1.10   53.5    71    3.9   225     7.1   850.9    0.00 
 125   11:40   1.13   53.7    68    2.0   183     6.6   850.8    0.00 
 125   11:50   1.15   53.9    69    2.4    91     7.3   850.8    0.00 
 125   12:00   0.82   54.5    67    3.0    67     6.8   850.7    0.00 
 125   12:10   0.94   54.5    69    3.5   142     7.3   850.7    0.00 
 125   12:20   1.22   56.4    65    2.9   141     7.1   850.7    0.00 
 125   12:30   1.22   56.8    62    3.1   148     7.1   850.7    0.00 
 125   12:40   1.01   56.6    58    2.6   313     4.9   850.7    0.00 
 125   12:50   1.22   57.9    56    2.0     6     5.5   850.7    0.00 
 125   13:00   1.06   58.3    57    2.7   174     6.5   850.6    0.00 
 125   13:10   1.09   58.1    54    2.0   224     4.0   850.5    0.00 
 125   13:20   1.06   59.3    56    1.5   109     4.6   850.5    0.00 
 125   13:30   1.05   59.9    51    1.5   193     3.1   850.5    0.00 
 125   13:40   0.93   60.2    51    2.6   267     6.0   850.4    0.00 
 125   13:50   1.01   59.8    56    4.3   145     7.5   850.3    0.00 
 125   14:00   0.83   59.9    56    4.6   184     8.7   850.2    0.00 
 125   14:10   0.95   60.0    55    5.1   239    10.4   850.1    0.00 
 125   14:20   0.95   60.4    52    4.3   214     8.1   850.0    0.00 
 125   14:30   0.94   61.2    52    3.1   229     6.8   850.0    0.00 
 125   14:40   0.91   62.1    50    1.8   230     4.9   850.0    0.00 
 125   14:50   0.80   62.0    50    3.1    80     7.5   849.9    0.00 
 125   15:00   0.70   61.3    51    4.0    92     7.9   849.8    0.00 
 125   15:10   0.79   61.8    48    1.5    85     4.0   849.8    0.00 
 125   15:20   0.80   63.1    46    2.9   345     7.5   849.8    0.00 
 125   15:30   0.79   63.1    46    4.2    19     9.3   849.8    0.00 
 125   15:40   0.71   63.2    45    2.9   337     8.2   849.7    0.00 
 125   15:50   0.65   63.2    44    3.9   343     9.9   849.7    0.00 
 125   16:00   0.62   63.1    45    5.1   323     9.2   849.7    0.00 
 125   16:10   0.61   63.4    43    3.1   323     9.0   849.6    0.00 
 125   16:20   0.56   64.0    44    2.8   275     6.8   849.6    0.00 
 125   16:30   0.53   64.0    43    2.1   333     5.4   849.6    0.00 
 125   16:40   0.46   63.9    45    4.6   165     9.4   849.6    0.00 
 125   16:50   0.42   63.6    47    5.7   138    10.3   849.6    0.00 
 125   17:00   0.38   63.3    47    6.6   175    10.3   849.6    0.00 
 125   17:10   0.34   63.0    47    6.8   175    10.3   849.6    0.00 
 125   17:20   0.31   62.8    47    6.2   167    10.5   849.5    0.00 
 125   17:30   0.27   62.8    47    6.4   167     9.6   849.4    0.00 
 125   17:40   0.24   62.5    48    6.7   156    10.8   849.4    0.00 
 125   17:50   0.20   62.2    50    7.9   181    11.1   849.3    0.00 
 125   18:00   0.17   61.9    52    8.3   190    11.5   849.3    0.00 
 125   18:10   0.14   61.5    53    7.2   188    11.5   849.3    0.00 
 125   18:20   0.06   60.6    55    6.5   176     9.4   849.3    0.00 
 125   18:30   0.02   59.5    57    5.1   162     7.8   849.3    0.00 
 125   18:40   0.02   58.8    58    5.2   162     7.5   849.4    0.00 
 125   18:50   0.01   58.1    60    5.1   172     8.2   849.5    0.00 
 125   19:00   0.00   57.3    63    4.3   214     6.8   849.7    0.00 
 125   19:10   0.00   56.8    63    4.0   191     5.7   849.7    0.00 
 125   19:20   0.00   56.2    66    4.2   196     6.1   849.8    0.00 
 125   19:30   0.00   55.9    67    3.6   174     5.7   850.0    0.00 
 125   19:40   0.00   55.1    73    2.9   186     4.9   850.1    0.00 
 125   19:50   0.00   54.6    73    2.0   186     2.6   850.3    0.00 
 125   20:00   0.00   54.4    74    2.1   189     3.1   850.3    0.00 
 125   20:10   0.00   53.4    75    2.6   146     4.1   850.3    0.00 
 125   20:20   0.00   52.3    77    1.8   156     3.4   850.4    0.00 
 125   20:30   0.00   51.4    81    1.9   210     3.8   850.6    0.00 
 125   20:40   0.00   52.3    75    4.4    88     6.1   850.8    0.00 
 125   20:50   0.00   53.3    73    5.1    92     7.1   851.0    0.00 
 125   21:00   0.00   53.1    74    3.2   146     4.8   851.0    0.00 
 125   21:10   0.00   52.7    76    4.0    40     7.6   851.5    0.00 
 125   21:20   0.00   54.3    69   16.7    58    35.5   852.8    0.03 
 125   21:30   0.00   50.4    76   13.7    98    22.1   852.5    0.05 
 125   21:40   0.00   50.1    80    9.6   140    14.4   852.4    0.01 
 125   21:50   0.00   50.5    80   11.7   216    19.4   852.4    0.00 
 125   22:00   0.00   50.8    77   11.0   215    16.9   852.3    0.00 
 125   22:10   0.00   51.5    73   11.3   212    17.5   852.1    0.00 
 125   22:20   0.00   52.1    71    6.5   192    10.3   852.1    0.00 
 125   22:30   0.00   51.3    74    5.2   148     6.6   852.2    0.00 
 125   22:40   0.00   49.9    78    5.4   142     8.0   852.1    0.00 
 125   22:50   0.00   48.8    81    2.9   111     4.8   852.2    0.00 
 125   23:00   0.00   48.7    80    1.6    76     3.3   852.2    0.00 
 125   23:10   0.00   48.6    82    1.8    36     3.6   852.2    0.00 
 125   23:20   0.00   47.9    84    4.5   340     6.6   852.3    0.00 
 125   23:30   0.00   47.9    85    3.4   353     5.7   852.4    0.00 
 125   23:40   0.00   46.6    88    3.3   285     5.9   852.5    0.00 
 125   23:50   0.00   45.9    90    5.2   207     6.8   852.7    0.00 
 126    0:00   0.00   46.2    89    4.4   234     6.0   852.8    0.00 
 126    0:10   0.00   46.0    89    3.3   266     5.9   852.9    0.00 
 126    0:20   0.00   46.1    88    3.5   285     5.5   852.9    0.00 

Return to Smith Valley graphs page.


Western Regional Climate Center,wrcc@dri.edu